Time,TemperatureF,DewpointF,PressureIn,WindDirection,WindDirectionDegrees,WindSpeedMPH,WindSpeedGustMPH,Humidity,HourlyPrecipIn,Conditions,Clouds,dailyrainin,SolarRadiationWatts/m^2,SoftwareType,DateUTC
2013-06-27 00:12:00,81.0,75.0,-100.00,ESE,122,3.0,8.0,83,0.00,,,0.12,1.000000,,2013-06-27 05:12:00,
2013-06-27 00:22:00,81.0,75.0,-100.00,ESE,122,3.0,8.0,83,0.00,,,0.12,1.000000,,2013-06-27 05:22:00,
2013-06-27 00:32:00,81.0,75.0,-100.00,ESE,122,3.0,8.0,83,0.00,,,0.12,1.000000,,2013-06-27 05:32:00,
2013-06-27 00:42:00,81.0,75.0,-100.00,ESE,122,3.0,8.0,83,0.00,,,0.12,1.000000,,2013-06-27 05:42:00,
2013-06-27 00:53:00,80.0,75.0,-100.00,ESE,111,5.0,6.0,86,0.00,,,0.12,1.000000,,2013-06-27 05:53:00,
2013-06-27 01:12:00,80.0,75.0,-100.00,ESE,111,5.0,6.0,86,0.00,,,0.12,1.000000,,2013-06-27 06:12:00,
2013-06-27 01:22:00,80.0,75.0,-100.00,ESE,111,5.0,6.0,86,0.00,,,0.12,1.000000,,2013-06-27 06:22:00,
2013-06-27 01:34:00,80.0,75.0,-100.00,ESE,111,5.0,6.0,86,0.00,,,0.12,1.000000,,2013-06-27 06:34:00,
2013-06-27 01:43:00,80.0,75.0,-100.00,ESE,111,5.0,6.0,86,0.00,,,0.12,1.000000,,2013-06-27 06:43:00,
2013-06-27 02:12:00,79.0,75.0,-100.00,SE,135,5.0,7.0,89,0.00,,,0.12,1.000000,,2013-06-27 07:12:00,
2013-06-27 02:22:00,79.0,75.0,-100.00,SE,135,5.0,7.0,89,0.00,,,0.12,1.000000,,2013-06-27 07:22:00,
2013-06-27 02:33:00,79.0,75.0,-100.00,SE,135,5.0,7.0,89,0.00,,,0.12,1.000000,,2013-06-27 07:33:00,
2013-06-27 02:42:00,79.0,75.0,-100.00,SE,135,5.0,7.0,89,0.00,,,0.12,1.000000,,2013-06-27 07:42:00,
2013-06-27 02:52:00,79.0,75.0,-100.00,SE,135,5.0,7.0,89,0.00,,,0.12,1.000000,,2013-06-27 07:52:00,
2013-06-27 03:22:00,78.0,74.0,-100.00,SW,221,1.0,6.0,89,0.00,,,0.12,1.000000,,2013-06-27 08:22:00,
2013-06-27 03:34:00,78.0,74.0,-100.00,SW,221,1.0,6.0,89,0.00,,,0.12,1.000000,,2013-06-27 08:34:00,
2013-06-27 03:43:00,78.0,74.0,-100.00,SW,221,1.0,6.0,89,0.00,,,0.12,1.000000,,2013-06-27 08:43:00,
2013-06-27 03:52:00,78.0,74.0,-100.00,SW,221,1.0,6.0,89,0.00,,,0.12,1.000000,,2013-06-27 08:52:00,
2013-06-27 03:53:00,78.0,74.0,-100.00,SSE,162,3.0,5.0,89,0.00,,,0.12,1.000000,,2013-06-27 08:53:00,
2013-06-27 04:11:00,78.0,74.0,-100.00,SSE,162,3.0,5.0,89,0.00,,,0.12,1.000000,,2013-06-27 09:11:00,
2013-06-27 04:22:00,78.0,74.0,-100.00,SSE,162,3.0,5.0,89,0.00,,,0.12,1.000000,,2013-06-27 09:22:00,
2013-06-27 04:34:00,78.0,74.0,-100.00,SSE,162,3.0,5.0,89,0.00,,,0.12,1.000000,,2013-06-27 09:34:00,
2013-06-27 04:43:00,78.0,74.0,-100.00,SSE,162,3.0,5.0,89,0.00,,,0.12,1.000000,,2013-06-27 09:43:00,
2013-06-27 04:53:00,77.0,74.0,-100.00,SSE,147,2.0,6.0,91,0.00,,,0.12,1.000000,,2013-06-27 09:53:00,
2013-06-27 05:11:00,77.0,74.0,-100.00,SSE,147,2.0,6.0,91,0.00,,,0.12,1.000000,,2013-06-27 10:11:00,
2013-06-27 05:22:00,77.0,74.0,-100.00,SSE,147,2.0,6.0,91,0.00,,,0.12,1.000000,,2013-06-27 10:22:00,
2013-06-27 05:32:00,77.0,74.0,-100.00,SSE,147,2.0,6.0,91,0.00,,,0.12,1.000000,,2013-06-27 10:32:00,
2013-06-27 05:44:00,77.0,74.0,-100.00,SSE,147,2.0,6.0,91,0.00,,,0.12,1.000000,,2013-06-27 10:44:00,
2013-06-27 06:11:00,76.0,74.0,-100.00,SSE,148,4.0,5.0,93,0.00,,,0.12,3.000000,,2013-06-27 11:11:00,
2013-06-27 06:22:00,76.0,74.0,-100.00,SSE,148,4.0,5.0,93,0.00,,,0.12,3.000000,,2013-06-27 11:22:00,
2013-06-27 06:33:00,76.0,74.0,-100.00,SSE,148,4.0,5.0,93,0.00,,,0.12,3.000000,,2013-06-27 11:33:00,
2013-06-27 06:43:00,76.0,74.0,-100.00,SSE,148,4.0,5.0,93,0.00,,,0.12,3.000000,,2013-06-27 11:43:00,
2013-06-27 06:52:00,76.0,74.0,-100.00,SSE,148,4.0,5.0,93,0.00,,,0.12,3.000000,,2013-06-27 11:52:00,
2013-06-27 07:11:00,78.0,74.0,-100.00,SSE,155,4.0,6.0,89,0.00,,,0.12,57.000000,,2013-06-27 12:11:00,
2013-06-27 07:22:00,78.0,74.0,-100.00,SSE,155,4.0,6.0,89,0.00,,,0.12,57.000000,,2013-06-27 12:22:00,
2013-06-27 07:34:00,78.0,74.0,-100.00,SSE,155,4.0,6.0,89,0.00,,,0.12,57.000000,,2013-06-27 12:34:00,
2013-06-27 07:42:00,78.0,74.0,-100.00,SSE,155,4.0,6.0,89,0.00,,,0.12,57.000000,,2013-06-27 12:42:00,
2013-06-27 08:11:00,82.0,76.0,-100.00,South,170,5.0,9.0,81,0.00,,,0.12,252.000000,,2013-06-27 13:11:00,
2013-06-27 08:22:00,82.0,76.0,-100.00,South,170,5.0,9.0,81,0.00,,,0.12,252.000000,,2013-06-27 13:22:00,
2013-06-27 08:34:00,82.0,76.0,-100.00,South,170,5.0,9.0,81,0.00,,,0.12,252.000000,,2013-06-27 13:34:00,
2013-06-27 08:43:00,82.0,76.0,-100.00,South,170,5.0,9.0,81,0.00,,,0.12,252.000000,,2013-06-27 13:43:00,
2013-06-27 08:52:00,82.0,76.0,-100.00,South,170,5.0,9.0,81,0.00,,,0.12,252.000000,,2013-06-27 13:52:00,
2013-06-27 09:22:00,85.0,74.0,-100.00,SSW,193,6.0,9.0,69,0.00,,,0.12,453.000000,,2013-06-27 14:22:00,
2013-06-27 09:33:00,85.0,74.0,-100.00,SSW,193,6.0,9.0,69,0.00,,,0.12,453.000000,,2013-06-27 14:33:00,
2013-06-27 09:43:00,85.0,74.0,-100.00,SSW,193,6.0,9.0,69,0.00,,,0.12,453.000000,,2013-06-27 14:43:00,
2013-06-27 09:52:00,85.0,74.0,-100.00,SSW,193,6.0,9.0,69,0.00,,,0.12,453.000000,,2013-06-27 14:52:00,
2013-06-27 10:22:00,88.0,71.0,-100.00,SSW,195,7.0,11.0,58,0.00,,,0.00,615.000000,,2013-06-27 15:22:00,
2013-06-27 10:33:00,88.0,71.0,-100.00,SSW,195,7.0,11.0,58,0.00,,,0.00,615.000000,,2013-06-27 15:33:00,
2013-06-27 10:42:00,88.0,71.0,-100.00,SSW,195,7.0,11.0,58,0.00,,,0.00,615.000000,,2013-06-27 15:42:00,
2013-06-27 10:52:00,88.0,71.0,-100.00,SSW,195,7.0,11.0,58,0.00,,,0.00,615.000000,,2013-06-27 15:52:00,
2013-06-27 10:53:00,90.0,69.0,-100.00,SSW,201,7.0,11.0,51,0.00,,,0.00,778.000000,,2013-06-27 15:53:00,
2013-06-27 11:11:00,90.0,69.0,-100.00,SSW,201,7.0,11.0,51,0.00,,,0.00,778.000000,,2013-06-27 16:11:00,
2013-06-27 11:23:00,90.0,69.0,-100.00,SSW,201,7.0,11.0,51,0.00,,,0.00,778.000000,,2013-06-27 16:23:00,
2013-06-27 11:34:00,90.0,69.0,-100.00,SSW,201,7.0,11.0,51,0.00,,,0.00,778.000000,,2013-06-27 16:34:00,
2013-06-27 11:43:00,90.0,69.0,-100.00,SSW,201,7.0,11.0,51,0.00,,,0.00,778.000000,,2013-06-27 16:43:00,
2013-06-27 11:53:00,92.0,72.0,-100.00,SSW,199,6.0,12.0,52,0.00,,,0.00,894.000000,,2013-06-27 16:53:00,
2013-06-27 12:11:00,92.0,72.0,-100.00,SSW,199,6.0,12.0,52,0.00,,,0.00,894.000000,,2013-06-27 17:11:00,
2013-06-27 12:22:00,92.0,72.0,-100.00,SSW,199,6.0,12.0,52,0.00,,,0.00,894.000000,,2013-06-27 17:22:00,
2013-06-27 12:33:00,92.0,72.0,-100.00,SSW,199,6.0,12.0,52,0.00,,,0.00,894.000000,,2013-06-27 17:33:00,
2013-06-27 12:43:00,92.0,72.0,-100.00,SSW,199,6.0,12.0,52,0.00,,,0.00,894.000000,,2013-06-27 17:43:00,
2013-06-27 13:12:00,94.0,73.0,-100.00,SW,217,6.0,16.0,51,0.00,,,0.00,998.000000,,2013-06-27 18:12:00,
2013-06-27 13:22:00,94.0,73.0,-100.00,SW,217,6.0,16.0,51,0.00,,,0.00,998.000000,,2013-06-27 18:22:00,
2013-06-27 13:32:00,94.0,73.0,-100.00,SW,217,6.0,16.0,51,0.00,,,0.00,998.000000,,2013-06-27 18:32:00,
2013-06-27 13:44:00,94.0,73.0,-100.00,SW,217,6.0,16.0,51,0.00,,,0.00,998.000000,,2013-06-27 18:44:00,
2013-06-27 13:52:00,94.0,73.0,-100.00,SW,217,6.0,16.0,51,0.00,,,0.00,998.000000,,2013-06-27 18:52:00,
2013-06-27 13:53:00,96.0,75.0,-100.00,South,191,6.0,11.0,51,0.00,,,0.00,997.000000,,2013-06-27 18:53:00,
2013-06-27 14:23:00,96.0,75.0,-100.00,South,191,6.0,11.0,51,0.00,,,0.00,997.000000,,2013-06-27 19:23:00,
2013-06-27 14:34:00,96.0,75.0,-100.00,South,191,6.0,11.0,51,0.00,,,0.00,997.000000,,2013-06-27 19:34:00,
2013-06-27 14:42:00,96.0,75.0,-100.00,South,191,6.0,11.0,51,0.00,,,0.00,997.000000,,2013-06-27 19:42:00,
2013-06-27 14:53:00,97.0,74.0,-100.00,SSW,210,8.0,11.0,48,0.00,,,0.00,949.000000,,2013-06-27 19:53:00,
2013-06-27 15:11:00,97.0,74.0,-100.00,SSW,210,8.0,11.0,48,0.00,,,0.00,949.000000,,2013-06-27 20:11:00,
2013-06-27 15:22:00,97.0,74.0,-100.00,SSW,210,8.0,11.0,48,0.00,,,0.00,949.000000,,2013-06-27 20:22:00,
2013-06-27 15:37:00,97.0,74.0,-100.00,SSW,210,8.0,11.0,48,0.00,,,0.00,949.000000,,2013-06-27 20:37:00,
2013-06-27 15:45:00,97.0,74.0,-100.00,SSW,210,8.0,11.0,48,0.00,,,0.00,949.000000,,2013-06-27 20:45:00,
2013-06-27 15:53:00,97.0,72.0,-100.00,SW,228,8.0,13.0,45,0.00,,,0.00,857.000000,,2013-06-27 20:53:00,
2013-06-27 16:24:00,97.0,72.0,-100.00,SW,228,8.0,13.0,45,0.00,,,0.00,857.000000,,2013-06-27 21:24:00,
2013-06-27 16:36:00,97.0,72.0,-100.00,SW,228,8.0,13.0,45,0.00,,,0.00,857.000000,,2013-06-27 21:36:00,
2013-06-27 16:46:00,97.0,72.0,-100.00,SW,228,8.0,13.0,45,0.00,,,0.00,857.000000,,2013-06-27 21:46:00,
2013-06-27 16:53:00,96.0,68.0,-100.00,SW,215,9.0,17.0,41,0.00,,,0.00,661.000000,,2013-06-27 21:53:00,
2013-06-27 17:15:00,96.0,68.0,-100.00,SW,215,9.0,17.0,41,0.00,,,0.00,661.000000,,2013-06-27 22:15:00,
2013-06-27 17:24:00,96.0,68.0,-100.00,SW,215,9.0,17.0,41,0.00,,,0.00,661.000000,,2013-06-27 22:24:00,
2013-06-27 17:48:00,96.0,68.0,-100.00,SW,215,9.0,17.0,41,0.00,,,0.00,661.000000,,2013-06-27 22:48:00,
2013-06-27 17:53:00,93.0,70.0,-100.00,SW,230,6.0,15.0,47,0.00,,,0.00,447.000000,,2013-06-27 22:53:00,
2013-06-27 18:15:00,93.0,70.0,-100.00,SW,230,6.0,15.0,47,0.00,,,0.00,447.000000,,2013-06-27 23:15:00,
2013-06-27 18:25:00,93.0,70.0,-100.00,SW,230,6.0,15.0,47,0.00,,,0.00,447.000000,,2013-06-27 23:25:00,
2013-06-27 18:34:00,93.0,70.0,-100.00,SW,230,6.0,15.0,47,0.00,,,0.00,447.000000,,2013-06-27 23:34:00,
2013-06-27 18:45:00,93.0,70.0,-100.00,SW,230,6.0,15.0,47,0.00,,,0.00,447.000000,,2013-06-27 23:45:00,
2013-06-27 18:53:00,88.0,72.0,-100.00,NW,321,3.0,10.0,60,0.00,,,0.00,180.000000,,2013-06-27 23:53:00,
2013-06-27 19:14:00,88.0,72.0,-100.00,NW,321,3.0,10.0,60,0.00,,,0.00,180.000000,,2013-06-28 00:14:00,
2013-06-27 19:28:00,88.0,72.0,-100.00,NW,321,3.0,10.0,60,0.00,,,0.00,180.000000,,2013-06-28 00:28:00,
2013-06-27 19:45:00,88.0,72.0,-100.00,NW,321,3.0,10.0,60,0.00,,,0.00,180.000000,,2013-06-28 00:45:00,
2013-06-27 19:53:00,86.0,72.0,-100.00,East,92,2.0,5.0,64,0.00,,,0.00,76.000000,,2013-06-28 00:53:00,
2013-06-27 20:14:00,86.0,72.0,-100.00,East,92,2.0,5.0,64,0.00,,,0.00,76.000000,,2013-06-28 01:14:00,
2013-06-27 20:25:00,86.0,72.0,-100.00,East,92,2.0,5.0,64,0.00,,,0.00,76.000000,,2013-06-28 01:25:00,
2013-06-27 20:35:00,86.0,72.0,-100.00,East,92,2.0,5.0,64,0.00,,,0.00,76.000000,,2013-06-28 01:35:00,
2013-06-27 20:45:00,86.0,72.0,-100.00,East,92,2.0,5.0,64,0.00,,,0.00,76.000000,,2013-06-28 01:45:00,
2013-06-27 20:53:00,80.0,75.0,-100.00,East,92,0.0,4.0,84,0.00,,,0.00,19.000000,,2013-06-28 01:53:00,
2013-06-27 21:17:00,80.0,75.0,-100.00,East,92,0.0,4.0,84,0.00,,,0.00,19.000000,,2013-06-28 02:17:00,
2013-06-27 21:27:00,80.0,75.0,-100.00,East,92,0.0,4.0,84,0.00,,,0.00,19.000000,,2013-06-28 02:27:00,
2013-06-27 21:36:00,80.0,75.0,-100.00,East,92,0.0,4.0,84,0.00,,,0.00,19.000000,,2013-06-28 02:36:00,
2013-06-27 21:49:00,80.0,75.0,-100.00,East,92,0.0,4.0,84,0.00,,,0.00,19.000000,,2013-06-28 02:49:00,
2013-06-27 21:53:00,78.0,74.0,-100.00,SE,137,0.0,3.0,87,0.00,,,0.00,1.000000,,2013-06-28 02:53:00,
2013-06-27 22:14:00,78.0,74.0,-100.00,SE,137,0.0,3.0,87,0.00,,,0.00,1.000000,,2013-06-28 03:14:00,
2013-06-27 22:27:00,78.0,74.0,-100.00,SE,137,0.0,3.0,87,0.00,,,0.00,1.000000,,2013-06-28 03:27:00,
2013-06-27 22:44:00,78.0,74.0,-100.00,SE,137,0.0,3.0,87,0.00,,,0.00,1.000000,,2013-06-28 03:44:00,
2013-06-27 22:53:00,78.0,73.0,-100.00,SE,130,0.0,4.0,85,0.00,,,0.00,1.000000,,2013-06-28 03:53:00,
2013-06-27 23:12:00,78.0,73.0,-100.00,SE,130,0.0,4.0,85,0.00,,,0.00,1.000000,,2013-06-28 04:12:00,
2013-06-27 23:22:00,78.0,73.0,-100.00,SE,130,0.0,4.0,85,0.00,,,0.00,1.000000,,2013-06-28 04:22:00,
2013-06-27 23:33:00,78.0,73.0,-100.00,SE,130,0.0,4.0,85,0.00,,,0.00,1.000000,,2013-06-28 04:33:00,
2013-06-27 23:43:00,78.0,73.0,-100.00,SE,130,0.0,4.0,85,0.00,,,0.00,1.000000,,2013-06-28 04:43:00,
2013-06-27 23:53:00,78.0,73.0,-100.00,South,185,0.0,4.0,85,0.00,,,0.00,1.000000,,2013-06-28 04:53:00,